Location: Buffign�court
(47.8126°N, 6.0176°E)
Time: 18:38:15
(UTC+00:00)

Okean 1 Rocket - Pass Details

Date: 16 June 2021
Orbit: 607 x 633 km, 82.5° (Epoch: 31 July)

Event Time Altitude Azimuth Distance (km) Brightness Sun altitude
Rises 20:22:54 0° 348° (NNW) 2,884 7.6 -6.6°
Reaches altitude 10° 20:25:07 10° 346° (NNW) 1,977 6.8 -6.8°
Maximum altitude 20:29:28 67° 264° (W) 667 3.4 -7.3°
Drops below altitude 10° 20:33:48 10° 182° (S) 1,974 5.2 -7.8°
Enters shadow 20:35:24 - 180° (S) 2,625 5.8 -8.0°
